Berlin, NH

6:31 AM EDT on May 29, 2017 (GMT -0400)
Berlin Municipal

Weather History for KBML - February, 2011

Change the Weather History Date:

Sunday, February 27, 2011

  Actual Average Record
Temperature  
Mean Temperature 17 °F -  
Max Temperature 26 °F 30 °F 48 °F (2009)
Min Temperature 8 °F 5 °F -22 °F (2003)
Degree Days  
Heating Degree Days 48    
Moisture  
Dew Point 9 °F    
Average Humidity 77    
Maximum Humidity 92    
Minimum Humidity 59    
Precipitation  
Precipitation 0.06 in - - ()
Sea Level Pressure  
Sea Level Pressure 30.02 in    
Wind  
Wind Speed 2 mph (NNW)    
Max Wind Speed 9 mph    
Max Gust Speed -    
Visibility 5 miles    
Events Snow    
Averages and records for this station are not official NWS values.
T = Trace of Precipitation, MM = Missing Value Source: NWS Daily Summary

Daily Weather History Graph

Daily Weather History Graph

Search for Another Location

Airport or City:

Trip Planner

Search our weather history database for the weather conditions in past years. The results will help you decide how hot, cold, wet, or windy it might be!

Date:

Astronomy

Feb. 27, 2011 Rise Set
Actual Time 6:26 AM EST 5:29 PM EST
Civil Twilight 5:56 AM EST 5:58 PM EST
Nautical Twilight 5:23 AM EST 6:32 PM EST
Astronomical Twilight 4:49 AM EST 7:06 PM EST
Moon 3:25 AM EST (2/27) 12:31 PM EST (2/27)
Length of Visible Light 12h 02m
Length of Day
11h 03m
Waning Crescent, 23% of the Moon is Illuminated
Feb 27
Waning Crescent
Mar 4
New
Mar 12
First Quarter
Mar 19
Full
Mar 26
Last Quarter

Hourly Weather History & Observations

Time (EST) Temp. Windchill Dew Point Humidity Pressure Visibility Wind Dir Wind Speed Gust Speed Precip Events Conditions
12:48 AM 8.6 °F - 3.2 °F 79% 30.00 in 9.0 mi Calm Calm - N/A   Overcast
12:52 AM 9.0 °F - 3.9 °F 80% 30.07 in 6.0 mi Calm Calm - 0.00 in Snow Light Snow
12:57 AM 8.6 °F - 3.2 °F 79% 30.00 in 2.5 mi Calm Calm - 0.00 in Snow Light Snow
1:02 AM 8.6 °F - 3.2 °F 79% 29.99 in 1.8 mi Calm Calm - 0.00 in Snow Light Snow
1:14 AM 8.6 °F 2.0 °F 5.0 °F 85% 29.99 in 1.2 mi North 3.5 mph - 0.00 in Snow Light Snow
1:27 AM 10.4 °F 4.0 °F 5.0 °F 79% 29.99 in 1.5 mi NNW 3.5 mph - 0.00 in Snow Light Snow
1:45 AM 10.4 °F 4.0 °F 6.8 °F 85% 29.99 in 2.0 mi NNW 3.5 mph - 0.00 in Snow Light Snow
1:52 AM 10.0 °F - 6.1 °F 84% 30.06 in 2.0 mi Calm Calm - 0.00 in Snow Light Snow
2:24 AM 10.4 °F 4.0 °F 6.8 °F 85% 29.98 in 1.5 mi NNW 3.5 mph - 0.01 in Snow Light Snow
2:52 AM 10.9 °F 4.7 °F 7.0 °F 84% 30.05 in 1.8 mi North 3.5 mph - 0.01 in Snow Light Snow
3:52 AM 10.9 °F 4.7 °F 7.0 °F 84% 30.03 in 1.2 mi NW 3.5 mph - 0.01 in Snow Light Snow
5:45 AM 10.4 °F -0.4 °F 6.8 °F 85% 29.94 in 1.8 mi NNW 6.9 mph - 0.01 in Snow Light Snow
5:52 AM 10.9 °F 4.7 °F 7.0 °F 84% 30.02 in 1.2 mi NNW 3.5 mph - 0.01 in Snow Light Snow
6:12 AM 10.4 °F 0.8 °F 6.8 °F 85% 29.95 in 1.5 mi NNW 5.8 mph - 0.01 in Snow Light Snow
6:35 AM 10.4 °F 4.0 °F 6.8 °F 85% 29.95 in 1.2 mi NNW 3.5 mph - 0.01 in Snow Light Snow
6:47 AM 10.4 °F 2.2 °F 6.8 °F 85% 29.96 in 1.5 mi NNW 4.6 mph - 0.02 in Snow Light Snow
7:09 AM 10.4 °F 4.0 °F 6.8 °F 85% 29.96 in 0.8 mi NNW 3.5 mph - 0.01 in Snow Light Snow
7:52 AM 12.0 °F - 8.1 °F 84% 30.05 in 0.8 mi Calm Calm - 0.02 in Snow Light Snow
8:31 AM 12.2 °F - 8.6 °F 85% 29.98 in 1.0 mi Calm Calm - 0.00 in Snow Light Snow
8:52 AM 14.0 °F 6.5 °F 9.0 °F 80% 30.07 in 1.5 mi NNW 4.6 mph - 0.00 in Snow Light Snow
9:05 AM 15.8 °F 10.2 °F 8.6 °F 73% 29.98 in 3.0 mi NNW 3.5 mph - 0.01 in Snow Light Snow
9:20 AM 15.8 °F - 8.6 °F 73% 29.98 in 1.8 mi Calm Calm - 0.01 in Snow Light Snow
9:29 AM 15.8 °F 8.6 °F 8.6 °F 73% 29.98 in 2.0 mi NNW 4.6 mph - 0.01 in Snow Light Snow
9:52 AM 17.1 °F - 10.0 °F 74% 30.06 in 2.5 mi Calm Calm - 0.01 in Snow Light Snow
10:20 AM 17.6 °F 12.3 °F 10.4 °F 73% 29.98 in 3.0 mi Variable 3.5 mph - 0.00 in Snow Light Snow
10:35 AM 19.4 °F - 10.4 °F 68% 29.98 in 4.0 mi Calm Calm - 0.00 in Snow Light Snow
10:52 AM 19.9 °F 14.9 °F 10.9 °F 68% 30.06 in 7.0 mi NW 3.5 mph - 0.00 in Snow Light Snow
11:24 AM 19.4 °F - 10.4 °F 68% 29.98 in 10.0 mi Calm Calm - 0.00 in   Overcast
11:31 AM 23.0 °F - 10.4 °F 59% 29.98 in 9.0 mi Calm Calm - 0.00 in Snow Light Snow
11:52 AM 21.0 °F - 12.0 °F 68% 30.05 in 9.0 mi Calm Calm - 0.00 in   Overcast
12:07 PM 23.0 °F - 12.2 °F 63% 29.98 in 6.0 mi Calm Calm - N/A   Haze
12:52 PM 24.1 °F - 14.0 °F 65% 30.04 in 6.0 mi Calm Calm - 0.00 in Snow Light Snow
1:03 PM 24.8 °F - 14.0 °F 64% 29.96 in 6.0 mi Calm Calm - 0.00 in Snow Light Snow
1:52 PM 25.0 °F 20.7 °F 16.0 °F 69% 30.02 in 6.0 mi South 3.5 mph - 0.00 in Snow Light Snow
2:52 PM 26.1 °F 19.4 °F 16.0 °F 66% 30.03 in 10.0 mi South 5.8 mph - 0.00 in   Overcast
3:52 PM 24.1 °F 14.4 °F 15.1 °F 69% 30.04 in 8.0 mi SE 9.2 mph - N/A   Overcast
4:52 PM 24.1 °F 17.0 °F 16.0 °F 71% 30.06 in 10.0 mi SSE 5.8 mph - N/A   Overcast
5:52 PM 23.0 °F 17.0 °F 16.0 °F 74% 30.08 in 10.0 mi South 4.6 mph - 0.00 in   Overcast
6:52 PM 21.9 °F 14.5 °F 15.1 °F 75% 30.11 in 10.0 mi SSE 5.8 mph - N/A   Overcast
7:52 PM 19.0 °F - 12.9 °F 77% 30.13 in 10.0 mi Calm Calm - N/A   Overcast
8:52 PM 18.0 °F 11.1 °F 12.9 °F 81% 30.13 in 10.0 mi SE 4.6 mph - N/A   Mostly Cloudy
9:52 PM 14.0 °F - 9.0 °F 80% 30.12 in 10.0 mi Calm Calm - N/A   Clear
10:52 PM 9.0 °F - 6.1 °F 88% 30.13 in 10.0 mi Calm Calm - N/A   Partly Cloudy
11:52 PM 9.0 °F - 7.0 °F 92% 30.14 in 10.0 mi Calm Calm - N/A   Overcast